Voltar ao catálogo

SL-8 DEB

AtivoLEO
NORAD 18681·DEBRIS·🇷🇺 Russia

Lançado Jun 9, 1987 de Plesetsk Cosmodrome

Loading…

Próximas Passagens (próximas 24 horas)

TLE

AtualizadoSource: Space-Track

Época: Sep 14, 2026, 11:14 UTC

1 18681U 87049D   26257.46855374  .00000810  00000-0  21613-3 0  9991
2 18681  74.0267  69.2600 0016105 265.0071 124.9022 14.49995850 58512

Acompanhe SL-8 DEB em tempo real com AllMySat

Download on the App Store